Westminster, MD

2:01 AM EDT on April 29, 2017 (GMT -0400)
Carroll County Regional-Poage

Weather History for KDMW - March, 2013

Change the Weather History Date:

Friday, March 1, 2013

  Actual Average (KTHV) Record (KTHV)
Temperature  
Mean Temperature 37 °F -  
Max Temperature 41 °F 0 °F 66 °F (2017)
Min Temperature 33 °F - 8 °F (2014)
Degree Days  
Heating Degree Days 28    
Moisture  
Dew Point 27 °F    
Average Humidity 66    
Maximum Humidity 81    
Minimum Humidity 53    
Precipitation  
Precipitation 0.00 in - - ()
Sea Level Pressure  
Sea Level Pressure 29.78 in    
Wind  
Wind Speed 8 mph (NW)    
Max Wind Speed 14 mph    
Max Gust Speed 22 mph    
Visibility 10 miles    
Events      
Averages and records for this station are not official NWS values.
T = Trace of Precipitation, MM = Missing Value Source: NWS Daily Summary

Daily Weather History Graph

Daily Weather History Graph

Search for Another Location

Airport or City:

Trip Planner

Search our weather history database for the weather conditions in past years. The results will help you decide how hot, cold, wet, or windy it might be!

Date:

Astronomy

Mar. 01, 2013 Rise Set
Actual Time 6:40 AM EST 6:00 PM EST
Civil Twilight 6:13 AM EST 6:27 PM EST
Nautical Twilight 5:42 AM EST 6:58 PM EST
Astronomical Twilight 5:11 AM EST 7:29 PM EST
Moon 10:30 PM EST (3/1) 8:27 AM EST (3/1)
Length of Visible Light 12h 13m
Length of Day
11h 19m
Waning Gibbous, 83% of the Moon is Illuminated
Mar 1
Waning Gibbous
Mar 4
Last Quarter
Mar 11
New
Mar 19
First Quarter
Mar 27
Full

Hourly Weather History & Observations

Time (EST) Temp. Windchill Dew Point Humidity Pressure Visibility Wind Dir Wind Speed Gust Speed Precip Events Conditions
12:10 AM 37.4 °F 30.8 °F 30.2 °F 75% 29.69 in 10.0 mi WNW 9.2 mph - N/A   Overcast
12:30 AM 37.4 °F 30.8 °F 30.2 °F 75% 29.69 in 10.0 mi West 9.2 mph - N/A   Overcast
12:50 AM 37.4 °F 30.3 °F 30.2 °F 75% 29.70 in 10.0 mi WNW 10.4 mph 16.1 mph N/A   Overcast
1:10 AM 37.4 °F 30.8 °F 30.2 °F 75% 29.70 in 10.0 mi WNW 9.2 mph - N/A   Overcast
1:30 AM 37.4 °F 30.3 °F 30.2 °F 75% 29.71 in 10.0 mi WNW 10.4 mph - N/A   Overcast
1:50 AM 37.4 °F 30.8 °F 30.2 °F 75% 29.71 in 10.0 mi WNW 9.2 mph - N/A   Overcast
2:30 AM 37.4 °F 30.8 °F 30.2 °F 75% 29.71 in 10.0 mi WNW 9.2 mph - N/A   Overcast
2:50 AM 37.4 °F 32.1 °F 30.2 °F 75% 29.71 in 10.0 mi WNW 6.9 mph - N/A   Overcast
3:10 AM 37.4 °F 30.3 °F 30.2 °F 75% 29.72 in 10.0 mi West 10.4 mph - N/A   Overcast
3:30 AM 37.4 °F 30.8 °F 30.2 °F 75% 29.72 in 10.0 mi WNW 9.2 mph - N/A   Overcast
3:50 AM 37.4 °F 32.1 °F 30.2 °F 75% 29.73 in 10.0 mi West 6.9 mph - N/A   Overcast
4:10 AM 37.4 °F 31.4 °F 30.2 °F 75% 29.73 in 10.0 mi West 8.1 mph - N/A   Overcast
4:30 AM 37.4 °F 31.4 °F 30.2 °F 75% 29.73 in 10.0 mi WNW 8.1 mph - N/A   Overcast
4:50 AM 37.4 °F 31.4 °F 30.2 °F 75% 29.73 in 10.0 mi WNW 8.1 mph - N/A   Overcast
5:10 AM 35.6 °F 30.7 °F 30.2 °F 81% 29.73 in 10.0 mi WNW 5.8 mph - N/A   Overcast
5:30 AM 35.6 °F 31.7 °F 30.2 °F 81% 29.73 in 10.0 mi WNW 4.6 mph - N/A   Overcast
6:30 AM 35.6 °F 30.7 °F 30.2 °F 81% 29.74 in 10.0 mi West 5.8 mph - N/A   Overcast
7:10 AM 35.6 °F 31.7 °F 30.2 °F 81% 29.76 in 10.0 mi WNW 4.6 mph - N/A   Mostly Cloudy
7:30 AM 35.6 °F - 30.2 °F 81% 29.77 in 10.0 mi Calm Calm - N/A   Overcast
7:50 AM 37.4 °F 34.9 °F 30.2 °F 75% 29.77 in 10.0 mi WNW 3.5 mph - N/A   Overcast
8:10 AM 37.4 °F 32.8 °F 28.4 °F 70% 29.78 in 10.0 mi WNW 5.8 mph - N/A   Overcast
8:30 AM 37.4 °F - 28.4 °F 70% 29.79 in 10.0 mi Calm Calm - N/A   Mostly Cloudy
8:50 AM 39.2 °F 33.6 °F 28.4 °F 65% 29.79 in 10.0 mi NW 8.1 mph - N/A   Overcast
9:30 AM 39.2 °F 33.6 °F 28.4 °F 65% 29.79 in 10.0 mi NW 8.1 mph - N/A   Overcast
9:50 AM 39.2 °F 33.0 °F 28.4 °F 65% 29.79 in 10.0 mi NW 9.2 mph - N/A   Overcast
10:10 AM 39.2 °F 35.0 °F 28.4 °F 65% 29.79 in 10.0 mi NW 5.8 mph 16.1 mph N/A   Overcast
10:30 AM 39.2 °F 33.6 °F 26.6 °F 61% 29.79 in 10.0 mi NW 8.1 mph 16.1 mph N/A   Overcast
10:50 AM 39.2 °F 33.0 °F 26.6 °F 61% 29.79 in 10.0 mi NW 9.2 mph - N/A   Overcast
11:10 AM 39.2 °F 32.0 °F 26.6 °F 61% 29.79 in 10.0 mi WNW 11.5 mph 18.4 mph N/A   Overcast
11:30 AM 41.0 °F 33.5 °F 26.6 °F 57% 29.79 in 10.0 mi NW 13.8 mph 18.4 mph N/A   Overcast
11:50 AM 41.0 °F 36.4 °F 26.6 °F 57% 29.79 in 10.0 mi NW 6.9 mph - N/A   Overcast
12:10 PM 41.0 °F 33.9 °F 26.6 °F 57% 29.79 in 10.0 mi NW 12.7 mph 17.3 mph N/A   Overcast
12:30 PM 41.0 °F 36.4 °F 24.8 °F 53% 29.79 in 10.0 mi NNW 6.9 mph - N/A   Overcast
12:50 PM 41.0 °F 33.5 °F 24.8 °F 53% 29.79 in 10.0 mi WNW 13.8 mph - N/A   Overcast
1:10 PM 41.0 °F 35.2 °F 26.6 °F 57% 29.79 in 10.0 mi NW 9.2 mph - N/A   Overcast
1:30 PM 41.0 °F 34.3 °F 24.8 °F 53% 29.78 in 10.0 mi WNW 11.5 mph - N/A   Overcast
1:50 PM 41.0 °F 37.1 °F 24.8 °F 53% 29.78 in 10.0 mi NNW 5.8 mph - N/A   Overcast
2:10 PM 39.2 °F - 24.8 °F 56% 29.78 in 10.0 mi Calm Calm - N/A   Overcast
2:30 PM 41.0 °F - 24.8 °F 53% 29.77 in 10.0 mi Calm Calm - N/A   Overcast
2:50 PM 41.0 °F 36.4 °F 24.8 °F 53% 29.77 in 10.0 mi WNW 6.9 mph - N/A   Overcast
3:10 PM 41.0 °F 35.2 °F 24.8 °F 53% 29.78 in 10.0 mi WNW 9.2 mph - N/A   Overcast
3:30 PM 39.2 °F 32.5 °F 24.8 °F 56% 29.78 in 10.0 mi NW 10.4 mph 16.1 mph N/A   Overcast
3:50 PM 39.2 °F 34.2 °F 24.8 °F 56% 29.78 in 10.0 mi NW 6.9 mph - N/A   Overcast
4:10 PM 39.2 °F 35.0 °F 24.8 °F 56% 29.78 in 10.0 mi NW 5.8 mph - N/A   Overcast
4:30 PM 39.2 °F - 24.8 °F 56% 29.78 in 10.0 mi Calm Calm - N/A   Overcast
4:50 PM 39.2 °F 35.9 °F 24.8 °F 56% 29.79 in 10.0 mi NNW 4.6 mph - N/A   Overcast
5:10 PM 39.2 °F 34.2 °F 24.8 °F 56% 29.80 in 10.0 mi NNW 6.9 mph - N/A   Overcast
5:30 PM 39.2 °F 33.0 °F 26.6 °F 61% 29.81 in 10.0 mi NW 9.2 mph - N/A   Overcast
5:50 PM 37.4 °F 31.4 °F 24.8 °F 60% 29.81 in 10.0 mi NW 8.1 mph - N/A   Overcast
7:10 PM 37.4 °F 31.4 °F 26.6 °F 65% 29.83 in 10.0 mi NW 8.1 mph - N/A   Overcast
7:30 PM 37.4 °F 31.4 °F 26.6 °F 65% 29.83 in 10.0 mi NW 8.1 mph - N/A   Overcast
7:50 PM 35.6 °F 32.8 °F 26.6 °F 70% 29.83 in 10.0 mi NW 3.5 mph 21.9 mph N/A   Overcast
8:10 PM 35.6 °F 29.2 °F 24.8 °F 65% 29.84 in 10.0 mi NW 8.1 mph - N/A   Overcast
8:30 PM 35.6 °F 28.6 °F 24.8 °F 65% 29.85 in 10.0 mi WNW 9.2 mph - N/A   Overcast
8:50 PM 35.6 °F 30.7 °F 24.8 °F 65% 29.85 in 10.0 mi WNW 5.8 mph - N/A   Overcast
9:10 PM 33.8 °F 28.6 °F 24.8 °F 70% 29.86 in 10.0 mi WNW 5.8 mph - N/A   Overcast
9:30 PM 33.8 °F 29.6 °F 24.8 °F 70% 29.86 in 10.0 mi NW 4.6 mph - N/A   Scattered Clouds
9:50 PM 33.8 °F - 23.0 °F 65% 29.86 in 10.0 mi Calm Calm - N/A   Scattered Clouds
10:10 PM 33.8 °F 29.6 °F 24.8 °F 70% 29.86 in 10.0 mi WNW 4.6 mph - N/A   Scattered Clouds
10:30 PM 33.8 °F 30.8 °F 24.8 °F 70% 29.86 in 10.0 mi WNW 3.5 mph - N/A   Mostly Cloudy
10:50 PM 33.8 °F 27.7 °F 24.8 °F 70% 29.86 in 10.0 mi NW 6.9 mph - N/A   Overcast
11:10 PM 33.8 °F 30.8 °F 24.8 °F 70% 29.85 in 10.0 mi NW 3.5 mph - N/A   Overcast
11:30 PM 33.8 °F - 24.8 °F 70% 29.85 in 10.0 mi Calm Calm - N/A   Overcast
11:50 PM 33.8 °F 27.0 °F 23.0 °F 65% 29.85 in 10.0 mi NW 8.1 mph - N/A   Overcast